Sudbury Airport
CYSB : now visible

Airfield :











YOU CAN JOIN US ON...

 
LOGIN :

Register | Disclaimer

   EN    FR    IT 

 









Legend :    VFR   Marginal VFR   IFR   Intensive IFR   Very Intensive IFR
Visi :
Ceiling :
>= 8 km
>= 3000ft
5 to 8 km
1000 to 3000 ft
1500m to 5 km
500 to 1000 ft
800 to 1500m
200 to 500 ft
< 800m
< 200 ft
Symbols :   Thunderstorms  Fog  Heavy snow  Heavy precipitations  Wind > 20 kt






- Airport Elevation : 1141 ft
- IATA code : YSB


CYSB - Sudbury

CURRENT METAR :
  • 182000Z 21009KT 200V010 20SM FEW076 26/08 A3023 RMK AC2 SLP241 DENSITY ALT 2400FT

EXPIRED METARs :
  • 181900Z VRB09G20KT 20SM FEW070 26/09 A3024 RMK CF2 SLP244 DENSITY ALT 2400FT
  • 181800Z 24011KT 20SM FEW100 FEW200 25/08 A3026 RMK AC1CI1 SLP251 DENSITY ALT 2300FT

TAF TAF CYSB
Valid from the 18 at 20:00 until the 19 at 08:00 UTC


181938Z 1820/1908 26005KT P6SM FEW070 RMK NXT FCST BY 190200Z
CZYZ FIR / North America



MET'MAP, your aeronautical weather chart ! - Copyright ORBIFLY December 2007 - Disclaimer

ORBIFLY MET'MAP TEAM :

Programming & Development : Alexandra Zaïnal
Concept & original design : Baudouin d'Aumeries
Assistance for programming : Marc-Olivier Méhu
Technical & hardware support : Manuel Goepfert

Contact : metmap@orbifly.com




SOURCES & CREDITS :

   NOAA       Earth
Advisory